Notices

What's New in latest Release from April 7th, 2021:

- Updated Glossary, including Speed of Maximum Gust, and Total Hourly Precipitation

- Updated national and regional climate services offices contacts and prices information

- Addition of station inventory lists for 1981-2010, 1971-2000, and 1961-1990 Normals.

If you haven't already, please take our survey and provide feedback about our website: https://eccc.sondage-survey.ca/f/LanguageSelection.aspx?s=442ca660-fcf1-47c0-95a9-59707d6fd709

Hourly Data Report for April 14, 2021

WIARTON A
ONTARIO
Current Station Operator: NAVCAN

44°44'39.000" N
81°06'31.000" W
221.90 m
6119499
71633
YVV

Download Data

Hourly Data (April 2021)
Hourly Data Report for April 14, 2021
TIME
LST
Temp Definition
°C
Dew Point Definition
°C
Rel Hum Definition
%
Precip. Amount Definition
mm

Wind Dir Definition
10's deg

Wind Spd Definition
km/h
Visibility Definition
km
Stn Press Definition
kPa
Hmdx Definition


Wind Chill Definition


Weather Definition


00:00 5.6 0.7 70   26 3 24.1 99.05     LegendNANA
01:00 3.5 1.5 87   14 11 24.1 99.02     Mainly Clear
02:00 4.8 1.4 78   19 7 24.1 99.01     LegendNANA
03:00 4.4 2.0 84   19 10 24.1 99.00     LegendNANA
04:00 3.4 2.0 91   20 12 24.1 99.00     Clear
05:00 3.2 2.0 92   19 14 24.1 99.01     LegendNANA
06:00 2.7 1.9 94   20 10 24.1 99.03     LegendNANA
07:00 4.0 2.8 92   24 14 24.1 99.05     Mainly Clear
08:00 5.8 2.1 77   28 12 24.1 99.03     LegendNANA
09:00 7.1 1.0 65   27 13 24.1 98.99     LegendNANA
10:00 8.8 1.3 60   24 14 24.1 98.97     Clear
11:00 8.9 1.2 58   25 17 24.1 98.95     LegendNANA
12:00 10.0 1.6 56   23 14 24.1 98.90     LegendNANA
13:00 11.5 -2.0 39   22 17 24.1 98.86     Mainly Clear
14:00 10.1 1.4 55   26 15 24.1 98.81     LegendNANA
15:00 7.5 -0.2 58   27 10 24.1 98.76     LegendNANA
16:00 7.0 0.7 64   31 5 19.3 98.71     Rain
17:00 6.3 1.0 69   30 7 19.3 98.70     Rain
18:00 5.8 0.7 70   27 4 24.1 98.69     LegendNANA
19:00 5.2 1.1 75   23 11 19.3 98.70     Cloudy
20:00 4.4 1.4 80   28 11 19.3 98.72     Rain
21:00 3.4 1.4 87   26 11 12.9 98.71     Rain
22:00 3.0 1.7 91   27 7 12.9 98.64     Rain
23:00 2.8 1.8 93   26 8 12.9 98.59     Rain

Notes on Data Quality.

Legend

  • E = Estimated
  • M = Missing
  • NA = Not Available*
  • [empty] = Indicates an unobserved value
Date modified: